Location: Dealu Mare
(46.0500°N, 22.8167°E)
Time: 21:15:06
(UTC+00:00)

IRS-1D - Pass Details

Date: 15 January 2026
Orbit: 737 x 810 km, 98.8° (Epoch: 10 February)

Event Time Altitude Azimuth Distance (km) Brightness Sun altitude
Rises 03:40:56 0° 14° (NNE) 3,330 6.9 -24.8°
Reaches altitude 10° 03:43:17 10° 15° (NNE) 2,400 6.2 -24.4°
Maximum altitude 03:48:37 87° 106° (ESE) 818 3.5 -23.5°
Drops below altitude 10° 03:53:56 10° 195° (SSW) 2,387 6.0 -22.5°
Sets 03:56:15 0° 196° (SSW) 3,310 6.7 -22.1°
